Location: Lafig�re
(44.4503°N, 4.0357°E)
Time: 13:38:52
(UTC+00:00)

S-56A Canister/Altair - Pass Details

Date: 26 January 2021
Orbit: 631 x 2501 km, 38.9° (Epoch: 01 March)

Event Time Altitude Azimuth Distance (km) Brightness Sun altitude
Rises 01:57:09 0° 238° (WSW) 3,158 - -54.0°
Reaches altitude 10° 01:59:52 10° 229° (SW) 2,108 - -53.6°
Maximum altitude 02:03:59 32° 165° (SSE) 1,086 - -53.0°
Drops below altitude 10° 02:07:58 10° 102° (ESE) 2,035 - -52.4°
Sets 02:10:32 0° 92° (E) 3,029 - -52.0°
